HIMAWARI 1 AKM, 59985

Orbit data source: Space-Track

HIMAWARI 1 AKM, 59985 is space debris in GEO originally from a launch on Thu, 14 Jul 1977 UTC launched from the Air Force Eastern Test Range (AFETR). Debris objects in space refer to the collection of defunct objects orbiting the Earth. Examples of debris include non-operational satellites, rocket bodies, and fragments generated from explosions, collisions, or faulty payload assembly.

Loading next visibility...
Identifier
59985, 1977-065GQ
Orbit
GEO
Country
Flag of JPJP / JPN
Related business
Manufacturer
Thiokol/TE
Mission
Spacecraft
Bus & Motor
STAR 27, Unknown motor
Mass
Wet unknown, 24 kg dry
Launch date (UTC)
1977-07-14 (48 years ago)
Launch vehicle
Unknown
Launch site
Air Force Eastern Test Range (AFETR)
Object type
Payload
Rocket body
Debris
Shape & HBR
Unknown
Radar Cross Section
Medium (>0.1 m² and <1 m²)

Expand to show TLE details & history
Last TLE update: 1 day ago

TLE from 1 day ago
0 HIMAWARI 1 AKM
1 59985U 77065GQ  25260.11358156 -.00000183  00000-0  00000-0 0  9999
2 59985   4.9022 277.2571 0270358 114.0698 248.5939  1.01125753 43686
Epoch: 2025-09-17T02:43Z
TLE epoch observation values (Epoch: 2025-09-17T02:43:33.446Z)
Latitude
-0.00002°
Longitude
-120.10537°
Altitude
35,983.405 km
Speed
3.052 km/s
True Right ascension
18h 28m 18s
True Declination
0° 00' 00"
Sunlit
Object was in daylight at epoch
Visualization orbit readout
Latitude
Unknown
Longitude
Unknown
Altitude
Unknown
Speed
Unknown
Apparent Right ascension
Unknown
Apparent Declination
Unknown
Sunlit
N/A
Visualization observer readout
Local Sidereal Time
02:57:38
Azimuth
Unknown
Elevation
Unknown
Doppler factor
Unknown
Orbital elements
Apogee altitude
36,683.508 km
Perigee altitude
34,416.389 km
Semi-major axis
41,928.086 km
Eccentricity
0.02704
Inclination
4.9022°
RAAN
277.2571°
Arg. of periapsis
114.0698°
True anomaly
245.74587°
Mean anomaly
248.5939°
Eccentric anomaly
247.16625°
Mean motion
0.2528 °/min
Orbital period
1,424.02 mins
BSTAR
0
Loading maneuver chart data...
Computing Atmospheric mass density...

Documentation

Showing up to 5 results
|